Location: Unspecified
(58.7730°N, 5.8460°E)
Time: 04:11:03
(UTC+02:00)

Cosmos 2058 - Visible Passes

Search period start: 22 May 2018 00:00
Search period end: 01 June 2018 00:00
Orbit: 564 x 584 km, 82.5° (Epoch: 21 May)

Date Brightness Start Highest point End Pass type
(mag) Time Alt. Az. Time Alt. Az. Time Alt. Az.
23 May 6.0 03:06:56 10° E 03:07:33 10° ENE 03:08:11 10° ENE visible
24 May 5.7 03:08:44 10° ESE 03:10:34 13° E 03:12:24 10° NE visible
25 May 5.5 03:11:08 10° ESE 03:13:36 15° E 03:16:04 10° NE visible
26 May 5.4 03:13:44 10° SE 03:16:38 18° E 03:19:33 10° NE visible
27 May 5.1 03:16:27 10° SE 03:19:42 22° E 03:22:58 10° NE visible
28 May 4.8 03:19:14 10° SE 03:22:46 26° E 03:26:19 10° NNE visible
29 May 4.5 03:22:07 10° SSE 03:25:51 32° E 03:29:38 10° NNE visible
30 May 4.1 03:25:03 10° SSE 03:28:58 39° E 03:32:54 10° NNE visible
